DW5508 Weather Reports


time (UTC)temp
F
wind
direction
speed
knots
gust
knots
rain 1hr
in
rain 24hr
in
rain mn
in
humidity
%
barometer
mb
20260507143020 54 171 1.7 6.1 0.00 0.00 0.00 38 1018.1
20260507141519 54 226 1.7 8.7 0.00 0.00 0.00 39 1018.1
20260507140017 54 101 1.7 8.7 0.00 0.00 0.00 42 1018.1
20260507134517 53 183 1.7 11.3 0.00 0.00 0.00 44 1018.1
20260507133013 52 210 0.9 7.0 0.00 0.00 0.00 50 1018.1
20260507131521 51 136 0.9 8.7 0.00 0.00 0.00 53 1018.1
20260507130011 51 137 0.9 7.8 0.00 0.00 0.00 43 1018.0
20260507124510 51 188 0.9 4.3 0.00 0.00 0.00 39 1018.1
20260507123009 51 39 0.9 6.1 0.00 0.00 0.00 40 1018.0
20260507121508 50 245 0.9 5.2 0.00 0.00 0.00 43 1018.0
20260507120007 49 142 0.0 7.8 0.00 0.00 0.00 49 1017.8
20260507114505 50 160 0.0 8.7 0.00 0.00 0.00 51 1017.9
20260507113004 50 148 0.0 5.2 0.00 0.00 0.00 43 1018.0
20260507111507 50 134 0.9 4.3 0.00 0.00 0.00 44 1018.2
20260507110003 51 156 0.9 9.6 0.00 0.00 0.00 44 1018.2
20260507104502 51 183 0.9 6.1 0.00 0.00 0.00 44 1018.1
20260507103114 51 185 0.9 7.0 0.00 0.00 0.00 43 1018.2
20260507101602 51 112 0.0 5.2 0.00 0.00 0.00 42 1018.2
20260507100112 51 218 0.9 6.1 0.00 0.00 0.00 42 1018.3
20260507094556 51 149 0.0 5.2 0.00 0.01 0.00 44 1018.6
20260507093057 50 139 0.9 6.1 0.00 0.01 0.00 50 1018.8
20260507091556 50 120 0.0 5.2 0.00 0.01 0.00 50 1018.9
20260507090050 50 320 0.9 4.3 0.00 0.01 0.00 48 1019.0
20260507084551 50 119 0.0 2.6 0.00 0.14 0.00 44 1019.1
20260507083104 50 148 0.0 4.3 0.00 0.14 0.00 45 1019.2
20260507081556 50 133 0.0 2.6 0.00 0.14 0.00 46 1019.3
20260507080044 51 226 0.0 2.6 0.00 0.14 0.00 48 1019.5
20260507074543 51 233 0.0 1.7 0.00 0.14 0.00 51 1019.5
20260507073051 51 152 0.0 2.6 0.00 0.14 0.00 49 1019.6
20260507071537 50 180 0.0 1.7 0.00 0.14 0.00 45 1019.7
20260507070040 50 162 0.0 1.7 0.00 0.14 0.00 43 1019.8
20260507064539 50 136 0.0 3.5 0.00 0.14 0.00 44 1019.8
20260507063034 49 144 0.0 1.7 0.00 0.14 0.00 46 1019.8
20260507061530 49 191 0.0 1.7 0.00 0.14 0.00 45 1019.8
20260507060027 49 210 0.0 2.6 0.00 0.14 0.00 43 1019.8
20260507054533 48 223 0.0 0.9 0.00 0.14 0.14 44 1019.7
20260507053026 49 131 0.0 0.9 0.00 0.14 0.14 43 1019.6
20260507051526 51 139 0.0 0.9 0.00 0.14 0.14 41 1019.7
20260507050033 51 114 0.0 0.9 0.00 0.14 0.14 39 1019.7
20260507044537 52 263 0.0 2.6 0.00 0.14 0.14 35 1019.8
20260507043025 52 248 0.0 4.3 0.00 0.14 0.14 35 1019.7
20260507041530 51 226 0.0 0.9 0.00 0.14 0.14 37 1019.8
20260507040023 51 236 0.0 0.9 0.00 0.14 0.14 36 1019.8
20260507034523 51 229 0.0 0.9 0.00 0.14 0.14 37 1019.8
20260507033026 51 215 0.0 0.9 0.00 0.14 0.14 37 1019.7
20260507031526 50 56 0.0 0.0 0.00 0.14 0.14 36 1019.4
20260507030021 52 56 0.0 0.0 0.00 0.14 0.14 34 1019.3
20260507024523 54 56 0.0 0.0 0.00 0.14 0.14 32 1019.3
20260507023020 57 56 0.0 0.0 0.00 0.14 0.14 28 1019.2
20260507021520 60 56 0.0 0.9 0.00 0.14 0.14 26 1019.2
20260507020023 62 11 0.0 0.9 0.00 0.14 0.14 23 1019.3
20260507014524 63 1 0.0 2.6 0.00 0.14 0.14 22 1019.3
20260507013023 64 333 0.0 1.7 0.00 0.14 0.14 22 1019.4
20260507011520 63 21 0.0 3.5 0.00 0.14 0.14 24 1019.4
20260507010017 63 17 0.0 3.5 0.00 0.14 0.14 22 1019.4
20260507004531 63 352 0.0 5.2 0.00 0.14 0.14 24 1019.5
20260507003015 64 248 1.7 4.3 0.00 0.14 0.14 22 1019.5
20260507001517 63 36 0.9 4.3 0.00 0.14 0.14 24 1019.4
20260507000019 63 345 2.6 5.2 0.00 0.14 0.14 24 1019.4
20260506234520 63 293 1.7 7.8 0.00 0.14 0.14 23 1019.4
20260506233011 63 333 1.7 4.3 0.00 0.14 0.14 24 1019.4
20260506231524 63 278 3.5 9.6 0.00 0.14 0.14 24 1019.5
20260506230008 62 325 0.9 10.4 0.00 0.14 0.14 27 1019.4
20260506224510 62 276 3.5 9.6 0.00 0.14 0.14 25 1019.5
20260506223006 62 303 2.6 9.6 0.00 0.14 0.14 24 1019.5
20260506221506 62 277 3.5 8.7 0.00 0.14 0.14 25 1019.7
20260506220003 61 155 6.1 14.8 0.00 0.14 0.14 25 1019.6
20260506214503 60 295 2.6 9.6 0.00 0.14 0.14 27 1020.0
20260506213140 60 301 5.2 9.6 0.00 0.14 0.14 26 1020.0
20260506211627 60 293 2.6 13.0 0.00 0.14 0.14 26 1020.0
20260506204559 60 250 2.6 7.8 0.00 0.14 0.14 28 1020.0
20260506203100 59 292 4.3 12.2 0.00 0.14 0.14 28 1020.2
20260506201604 59 65 3.5 11.3 0.00 0.14 0.14 29 1020.0
20260506200153 58 344 3.5 11.3 0.00 0.14 0.14 28 1020.1
20260506194608 59 294 3.5 10.4 0.00 0.14 0.14 28 1019.9
20260506193051 59 9 4.3 13.0 0.00 0.14 0.14 28 1020.0
20260506191552 58 358 5.2 11.3 0.00 0.14 0.14 25 1019.9
20260506190047 58 59 2.6 9.6 0.00 0.14 0.14 28 1020.0
20260506184551 56 330 2.6 11.3 0.00 0.14 0.14 28 1020.0
20260506183057 56 341 3.5 12.2 0.00 0.14 0.14 28 1020.0
20260506181540 55 314 3.5 12.2 0.00 0.14 0.14 29 1020.0
20260506180041 55 345 4.3 13.0 0.00 0.14 0.14 26 1020.0
20260506174540 54 314 3.5 11.3 0.00 0.14 0.14 29 1020.0
20260506173034 54 145 2.6 10.4 0.00 0.14 0.14 32 1019.9
20260506171533 54 53 2.6 11.3 0.00 0.14 0.14 31 1019.7
20260506170033 53 326 3.5 13.0 0.00 0.14 0.14 34 1019.6
20260506164526 52 360 4.3 10.4 0.00 0.14 0.14 31 1019.4
20260506163026 52 14 5.2 12.2 0.00 0.14 0.14 33 1019.1
20260506161523 52 12 3.5 10.4 0.00 0.14 0.14 35 1018.9
20260506160022 51 4 2.6 8.7 0.00 0.14 0.14 39 1018.8
20260506154519 51 350 2.6 11.3 0.00 0.14 0.14 40 1018.6
20260506153018 50 278 2.6 10.4 0.00 0.14 0.14 42 1018.4
20260506151518 49 62 3.5 12.2 0.00 0.14 0.14 40 1018.2
20260506150014 50 5 2.6 8.7 0.00 0.14 0.14 44 1017.9
20260506144510 50 309 1.7 6.1 0.00 0.14 0.14 50 1017.8